Location: Ostrava
(49.8330°N, 18.2830°E)
Time: 03:17:03
(UTC+02:00)

Cosmos 2221 - Visible Passes

Search period start: 31 July 2014 00:00
Search period end: 10 August 2014 00:00
Orbit: 599 x 622 km, 82.5° (Epoch: 29 July)

Date Brightness Start Highest point End Pass type
(mag) Time Alt. Az. Time Alt. Az. Time Alt. Az.
31 Jul 5.0 01:25:56 10° ESE 01:28:03 14° E 01:30:12 10° NE visible
31 Jul 2.5 03:02:55 29° SSW 03:05:07 74° W 03:09:34 10° N visible
01 Aug 4.5 01:40:44 17° ESE 01:42:30 21° E 01:45:51 10° NE visible
01 Aug 3.1 03:17:43 25° SW 03:19:53 45° WNW 03:24:10 10° N visible
02 Aug 3.8 01:55:32 27° SE 01:57:00 34° E 02:01:00 10° NNE visible
02 Aug 3.8 03:32:31 19° WSW 03:34:44 29° WNW 03:38:36 10° N visible
03 Aug 3.0 02:10:18 40° SSE 02:11:36 56° E 02:15:56 10° NNE visible
03 Aug 4.4 03:47:18 13° WSW 03:49:40 19° WNW 03:52:49 10° NNW visible
04 Aug 5.1 00:48:05 10° E 00:49:19 11° E 00:50:39 10° ENE visible
04 Aug 2.5 02:25:04 49° S 02:26:16 88° W 02:30:43 10° N visible
04 Aug 4.8 04:02:51 10° W 04:04:41 12° WNW 04:06:31 10° NW visible
05 Aug 4.5 01:02:50 17° E 01:03:43 18° E 01:06:44 10° NE visible
05 Aug 2.9 02:39:49 41° SW 02:41:00 54° WNW 02:45:21 10° N visible
06 Aug 3.9 01:17:35 27° ESE 01:18:12 29° E 01:22:00 10° NNE visible
06 Aug 3.6 02:54:34 28° WSW 02:55:49 33° WNW 02:59:51 10° N visible
07 Aug 3.1 01:32:18 44° ESE 01:32:46 46° E 01:37:00 10° NNE visible
07 Aug 4.2 03:09:17 19° W 03:10:42 22° WNW 03:14:10 10° NNW visible
08 Aug 2.5 01:47:01 71° SSE 01:47:24 77° E 01:51:50 10° NNE visible
08 Aug 4.7 03:24:00 12° W 03:25:41 14° WNW 03:28:07 10° NNW visible
09 Aug 4.7 00:24:45 15° E 00:24:56 15° E 00:27:30 10° NE visible
09 Aug 2.6 02:01:43 62° WSW 02:02:06 65° WNW 02:06:31 10° N visible
